Weather History for Shelbyville, IN

Change the Weather History Date:

Sunday, July 21, 2013

  Actual Average Record
Temperature  
Mean Temperature 76 °F 74 °F  
Max Temperature 85 °F 84 °F 97 °F (2011)
Min Temperature 66 °F 64 °F 52 °F (2007)
Degree Days  
Heating Degree Days 0 0  
Month to date heating degree days 0 0  
Since 1 June heating degree days 5 15  
Since 1 July heating degree days 0 0  
Cooling Degree Days 11 9  
Month to date cooling degree days 247 189  
Year to date cooling degree days 681 479  
Since 1 June cooling degree days 513 398  
Growing Degree Days 25 (Base 50)    
Moisture  
Dew Point 69 °F    
Average Humidity 79    
Maximum Humidity 93    
Minimum Humidity 65    
Precipitation  
Precipitation 0.00 in 0.16 in 1.18 in (2006)
Month to date precipitation 0.89 3.26  
Year to date precipitation 17.68 25.44  
Sea Level Pressure  
Sea Level Pressure 29.92 in    
Wind  
Wind Speed 1 mph (SSW)    
Max Wind Speed 7 mph    
Max Gust Speed 22 mph    
Visibility 7 miles    
Events Fog    
T = Trace of Precipitation, MM = Missing Value Source: NWS Daily Summary

Daily Weather History Graph

Daily Weather History Graph

Search for Another Location

Airport:

Trip Planner

Search our weather history database for the weather conditions in past years. The results will help you decide how hot, cold, wet, or windy it might be!

Date:

Astronomy

Jul. 21, 2013 Rise Set
Actual Time 6:33 AM EDT 9:05 PM EDT
Civil Twilight 6:02 AM EDT 9:36 PM EDT
Nautical Twilight 5:23 AM EDT 10:15 PM EDT
Astronomical Twilight 4:40 AM EDT 10:58 PM EDT
Moon 8:03 PM EDT (7/21) 5:18 AM EDT (7/21)
Length of Visible Light 15h 34m
Length of Day
14h 32m
Waxing Gibbous, 98% of the Moon is Illuminated
Jul 21
Waxing Gibbous
Jul 22
Full
Jul 29
Last Quarter
Aug 6
New
Aug 14
First Quarter

Hourly Weather History & Observations

Time (EDT) Temp. Heat Index Dew Point Humidity Pressure Visibility Wind Dir Wind Speed Gust Speed Precip Events Conditions
12:53 AM 70.0 °F - 66.9 °F 90% 29.90 in 9.0 mi Calm Calm - N/A   Clear
1:53 AM 70.0 °F - 66.9 °F 90% 29.92 in 7.0 mi SSW 3.5 mph - N/A   Mostly Cloudy
2:53 AM 70.0 °F - 66.9 °F 90% 29.91 in 6.0 mi Calm Calm - N/A   Mostly Cloudy
3:53 AM 69.1 °F - 66.0 °F 90% 29.91 in 5.0 mi SW 3.5 mph - N/A   Overcast
4:53 AM 69.1 °F - 66.0 °F 90% 29.91 in 5.0 mi Calm Calm - N/A   Partly Cloudy
5:25 AM 66.2 °F - 64.4 °F 94% 29.93 in 1.5 mi Calm Calm - N/A   Clear
5:34 AM 66.2 °F - 64.4 °F 94% 29.93 in 0.5 mi Calm Calm - N/A Fog Fog
5:50 AM 66.2 °F - 64.4 °F 94% 29.93 in 1.8 mi Calm Calm - N/A   Clear
5:53 AM 66.9 °F - 64.0 °F 90% 29.92 in 1.8 mi Calm Calm - N/A   Partly Cloudy
6:28 AM 66.2 °F - 64.4 °F 94% 29.94 in 0.8 mi South 3.5 mph - N/A   Mostly Cloudy
6:32 AM 66.2 °F - 64.4 °F 94% 29.94 in 1.0 mi South 3.5 mph - N/A   Mostly Cloudy
6:47 AM 68.0 °F - 64.4 °F 88% 29.94 in 2.0 mi SSW 3.5 mph - N/A   Mostly Cloudy
6:53 AM 68.0 °F - 64.9 °F 90% 29.93 in 3.0 mi South 3.5 mph - N/A   Mostly Cloudy
7:53 AM 69.1 °F - 66.9 °F 93% 29.93 in 6.0 mi Calm Calm - N/A   Clear
8:53 AM 73.0 °F - 68.0 °F 84% 29.94 in 10.0 mi Calm Calm - N/A   Clear
9:53 AM 75.0 °F - 69.1 °F 82% 29.95 in 10.0 mi South 3.5 mph - N/A   Clear
10:53 AM 79.0 °F - 70.0 °F 74% 29.96 in 10.0 mi Calm Calm - N/A   Clear
11:53 AM 80.1 °F 83.6 °F 71.1 °F 74% 29.95 in 10.0 mi Calm Calm - N/A   Partly Cloudy
12:41 PM 80.6 °F 84.6 °F 71.6 °F 74% 29.97 in 10.0 mi Calm Calm - N/A   Mostly Cloudy
12:53 PM 81.0 °F 85.2 °F 72.0 °F 74% 29.95 in 10.0 mi Calm Calm - N/A   Mostly Cloudy
1:16 PM 80.6 °F 84.6 °F 71.6 °F 74% 29.96 in 10.0 mi SSW 3.5 mph - N/A   Scattered Clouds
1:53 PM 82.0 °F 86.3 °F 71.1 °F 69% 29.94 in 10.0 mi Calm Calm - N/A   Partly Cloudy
2:53 PM 82.9 °F 87.5 °F 71.1 °F 67% 29.93 in 10.0 mi Calm Calm - N/A   Clear
3:53 PM 82.9 °F 88.0 °F 72.0 °F 69% 29.91 in 10.0 mi NNE 3.5 mph - N/A   Clear
4:53 PM 84.0 °F 89.0 °F 71.1 °F 65% 29.90 in 10.0 mi Calm Calm - N/A   Clear
5:53 PM 84.0 °F 89.6 °F 72.0 °F 67% 29.88 in 10.0 mi Calm Calm - N/A   Clear
6:53 PM 82.9 °F 89.4 °F 73.9 °F 74% 29.87 in 10.0 mi Calm Calm - N/A   Clear
7:53 PM 82.0 °F 87.9 °F 73.9 °F 76% 29.86 in 10.0 mi Calm Calm - N/A   Clear
8:53 PM 79.0 °F - 70.0 °F 74% 29.87 in 10.0 mi Calm Calm - N/A   Clear
9:53 PM 75.9 °F - 71.1 °F 85% 29.88 in 10.0 mi East 3.5 mph - N/A   Partly Cloudy
10:53 PM 75.9 °F - 70.0 °F 82% 29.89 in 10.0 mi Calm Calm - N/A   Scattered Clouds
11:53 PM 75.0 °F - 71.1 °F 87% 29.88 in 10.0 mi Calm Calm - N/A   Partly Cloudy